APSTAR-6C

Last updated on Tue Oct 08 2024 00:02:41 GMT+0000 (Coordinated Universal Time)

1 43450U 18041A 24281.55675765 -.00000307 00000+0 00000+0 0 9992 2 43450 0.0486 314.7229 0003153 308.6805 87.7567 1.00272630 23619
UTC large
Height (km)
Speed (km/s)
/
Latitude / Longitude
Inclination (degrees)
Orbital Period (minutes)
Azimuth
Elevation
Range (km)
Doppler Factor

Next 0 passes for location: London (51.5072 / 0.1276)

Sorry there are no passes over London.